Showing default

OPS 8464 (TRANSIT 5B-7), 1514

Orbit data source: Space-Track

OPS 8464 (TRANSIT 5B-7), 1514 is a payload satellite owned by USN BuWeps (US) in LEO that was launched on Fri, 13 Aug 1965 UTC via a THOR ABLESTAR launch vehicle from the Air Force Western Test Range (AFWTR). Payload-class satellites include a variety of spacecraft equipped with specific instruments for various scientific and technological missions. These include communications satellites like Starlink; space stations such as the ISS; scientific satellites like the Hubble; Earth observation satellites from companies like Planet Labs, Umbra, and HawkEye 360; GPS; miniature CubeSats for education and research; and military/defense satellites.

Loading next visibility...
Identifier
1514, 1965-065F
Orbit
LEO
Country
Flag of USUS
Related business
Manufacturer
NAFI
Mission
Spacecraft
Bus & Motor
TRANSIT 5, Unknown motor
Mass
~54 kg wet, ~54 kg dry
Launch date (UTC)
1965-08-13 (61 years ago)
Launch vehicle
THOR ABLESTAR
Launch site
Air Force Western Test Range (AFWTR)
Object type
Payload
Rocket body
Debris
Shape & HBR
Unknown
Radar Cross Section
Large (>1 m²)

Expand to show TLE details & history
Last TLE update: 3 hours ago

TLE from 3 hours ago
0 OPS 8464 (TRANSIT 5B-7)
1  1514U 65065F   26120.20907718  .00000102  00000-0  18357-3 0  9998
2  1514  89.9963 227.9051 0068048 296.2602 126.8322 13.35361259954860
Epoch: 2026-04-30T05:01Z
TLE epoch observation values (Epoch: 2026-04-30T05:01:04.268Z)
Latitude
63.79631°
Longitude
-65.51418°
Altitude
1,168.515 km
Speed
7.26 km/s
True Right ascension
15h 11m 39s
True Declination
63° 40' 02"
Sunlit
Object was in daylight at epoch
Visualization orbit readout
Latitude
Unknown
Longitude
Unknown
Altitude
Unknown
Speed
Unknown
Apparent Right ascension
Unknown
Apparent Declination
Unknown
Sunlit
N/A
Visualization observer readout
Local Sidereal Time
15:39:47
Azimuth
Unknown
Elevation
Unknown
Doppler factor
Unknown
Orbital elements
Apogee altitude
1,174.728 km
Perigee altitude
1,072.632 km
Semi-major axis
7,501.817 km
Eccentricity
0.0068
Inclination
89.9963°
RAAN
227.9051°
Arg. of periapsis
296.2602°
True anomaly
127.45315°
Mean anomaly
126.8322°
Eccentric anomaly
127.14299°
Mean motion
3.34036 °/min
Orbital period
107.77 mins
BSTAR
0.00018357
Loading maneuver chart data...
Computing Atmospheric mass density...
Loading historical data...
Loading historical data...
Loading historical data...
Loading historical data...
Loading historical data...
Loading historical data...
Loading historical data...

Documentation

Showing up to 5 results
|